Skip Page Navigation
NASA JPL Caltech
NASA Logo - Jet Propulsion Laboratory + View the NASA Portal
+ Center for Near-Earth Object Studies
JPL Home Earth Solar System Stars & Galaxies Technology
JPL Solar System Dynamics
BODIES ORBITS EPHEMERIDES TOOLS PHYSICAL DATA DISCOVERY FAQ SITE MAP
JPL Small-Body Database Browser
Search: [ help ]  
393372 (1999 TP317)
Classification: Main-belt Asteroid          SPK-ID: 2393372
Ephemeris | Orbit Diagram | Orbital Elements | Mission Design | Physical Parameters | Discovery Circumstances | Close-Approach Data ]

[ show orbit diagram ]
Orbital Elements at Epoch 2459000.5 (2020-May-31.0) TDB
Reference: JPL 10 (heliocentric ecliptic J2000)
 Element Value Uncertainty (1-sigma)   Units 
e .2017467855214795 1.0125e-07  
a 3.110119654388486 4.2353e-08 au
q 2.482663011528434 3.3978e-07 au
i 15.59973982837441 1.5919e-05 deg
node 188.2701342740002 4.3392e-05 deg
peri 103.440515457799 6.2625e-05 deg
M 320.0701843635316 4.2892e-05 deg
tp 2459222.707584165945
(2021-Jan-08.20758417)
0.00024049 TDB
period 2003.38341223594
5.48
4.0922e-05
1.12e-07
d
yr
n .1796960071653037 3.6706e-09 deg/d
Q 3.737576297248537 5.0897e-08 au
  Orbit Determination Parameters
   # obs. used (total)      134  
   data-arc span      7535 days (20.63 yr)  
   first obs. used      1999-10-12  
   last obs. used      2020-05-29  
   planetary ephem.      DE431  
   SB-pert. ephem.      SB431-N16  
   condition code      0  
   norm. resid. RMS      .51741  
   source      ORB  
   producer      Otto Matic  
   solution date      2020-Jun-24 06:56:09  

Additional Information
 Earth MOID = 1.52421 au 
 Jupiter MOID = 1.80934 au 
 T_jup = 3.132 
[ show covariance matrix ]

Ephemeris | Orbit Diagram | Orbital Elements | Mission Design | Physical Parameters | Discovery Circumstances | Close-Approach Data ]

Physical Parameter Table
Parameter Symbol Value Units Sigma Reference Notes
absolute magnitude H 16.6   n/a MPO397433  

393372 (1999 TP317)          Discovered 1999-Oct-12 by Spacewatch at Kitt Peak
Reference: Last Updated: 2014-05-15

[ show close-approach data ]
Alternate Designations
 1999 TP317 = 2010 MP14 
Ephemeris | Orbit Diagram | Orbital Elements | Mission Design | Physical Parameters | Discovery Circumstances | Close-Approach Data ]
ABOUT SSD CREDITS/AWARDS PRIVACY/COPYRIGHT GLOSSARY LINKS
FirstGov 2020-Jul-06 17:02 UT
(server date/time)  
NASA Home Page
Site Manager:   Ryan S. Park
Webmaster  Alan B. Chamberlin